FLOCK 2E'-1 (41479 NORAD) Tracking and Keplerian Element Data

This shows tracking and keplerian element data for the satellite.

Feedback or suggestion? Click here.




ElementValue
Catalog41479
NameFLOCK 2E'-1
Epoch Orbit10967
Epoch Day105.3845958
Epoch Year2018
RAAN247.7635
Inclination51.6572
Eccentricity0.0010585
Argument of Perigee249.4096
Mean Anonmoly110.7638
Mean Motion16.36621036
Decay Rate0.09024299
L11 41479U 98067HZ 18105.38459580 .09024299 12245-4 94993-3 0 9992
L22 41479 51.6572 247.7635 0010585 249.4096 110.7638 16.36621036109673



Live tracking and technical data element details for FLOCK 2E'-1 (NORAD 41479). FLOCK 2E'-1 can be tracked NOW for your location showing map with azimuth and elevation plus other details from your city location.







IsCatalogInMostPopularTable: catalog: 41479, numindb: 557
Update: records affected: 1



GetName: 41479 FLOCK 2E'-1

Hit Count: updated at: Thu, 15 May 2025 20:10:20 GMT